Location: Carella
(45.8167°N, 9.2667°E)
Time: 12:58:55
(UTC+00:00)

Cosmos 1709 Rocket - Pass Details

Date: 30 March 2020
Orbit: 948 x 1002 km, 82.9° (Epoch: 28 May)

Event Time Altitude Azimuth Distance (km) Brightness Sun altitude
Rises 18:42:20 0° 352° (N) 3,685 7.4 -9.9°
Reaches altitude 10° 18:44:53 10° 355° (N) 2,725 6.6 -10.3°
Maximum altitude 18:51:07 73° 80° (E) 1,008 3.9 -11.3°
Drops below altitude 10° 18:57:13 10° 165° (SSE) 2,674 6.0 -12.4°
Sets 18:59:42 0° 167° (SSE) 3,611 6.7 -12.8°
